BRITE-PL 2 (40119 NORAD) Tracking and Keplerian Element Data

This shows tracking and keplerian element data for the satellite.

Feedback or suggestion? Click here.




ElementValue
Catalog40119
NameBRITE-PL 2
Epoch Orbit23469
Epoch Day352.84976607
Epoch Year2018
RAAN80.0568
Inclination97.9131
Eccentricity0.0018887
Argument of Perigee95.0021
Mean Anonmoly265.3349
Mean Motion14.84350884
Decay Rate9.3E-07
L11 40119U 14049B 18352.84976607 .00000093 00000-0 17503-4 0 9991
L22 40119 97.9131 80.0568 0018887 95.0021 265.3349 14.84350884234694

Live tracking and technical data element details for BRITE-PL 2 (NORAD 40119). BRITE-PL 2 can be tracked NOW for your location showing map with azimuth and elevation plus other details from your city location.

Track the satellite on the map from your city or location and see movement details for azimuth, elevation, latitude, longitude, range, height, and movement on the map or in text.







IsCatalogInMostPopularTable: catalog: 40119, numindb: 95
Update: records affected: 1



GetName: 40119 BRITE-PL 2

Hit Count: updated at: Wed, 19 Dec 2018 15:39:16 GMT